Time,TemperatureF,DewpointF,PressureIn,WindDirection,WindDirectionDegrees,WindSpeedMPH,WindSpeedGustMPH,Humidity,HourlyPrecipIn,Conditions,Clouds,dailyrainin,SoftwareType,DateUTC
2013-06-14 00:05:00,69.0,55.0,29.89,NW,315,5.0,9.0,61,0.00,,,0.74,weatherlink.com 1.10,2013-06-14 04:05:00,
2013-06-14 00:20:00,68.5,54.0,29.89,West,279,1.0,8.0,61,0.00,,,0.00,weatherlink.com 1.10,2013-06-14 04:20:00,
2013-06-14 00:35:00,68.2,54.0,29.89,NW,324,5.0,9.0,61,0.00,,,0.00,weatherlink.com 1.10,2013-06-14 04:35:00,
2013-06-14 00:50:00,67.9,54.0,29.90,WNW,303,4.0,8.0,61,0.00,,,0.00,weatherlink.com 1.10,2013-06-14 04:50:00,
2013-06-14 01:05:00,67.4,54.0,29.90,WSW,246,1.0,9.0,62,0.00,,,0.00,weatherlink.com 1.10,2013-06-14 05:05:00,
2013-06-14 01:35:00,66.4,54.0,29.90,West,269,1.0,5.0,65,0.00,,,0.00,weatherlink.com 1.10,2013-06-14 05:35:00,
2013-06-14 01:50:00,65.9,54.0,29.90,North,355,3.0,4.0,66,0.00,,,0.00,weatherlink.com 1.10,2013-06-14 05:50:00,
2013-06-14 02:05:00,65.5,54.0,29.90,NNW,335,1.0,6.0,66,0.00,,,0.00,weatherlink.com 1.10,2013-06-14 06:05:00,
2013-06-14 02:20:00,65.2,54.0,29.89,West,274,4.0,7.0,67,0.00,,,0.00,weatherlink.com 1.10,2013-06-14 06:20:00,
2013-06-14 02:35:00,64.8,54.0,29.89,WSW,255,2.0,8.0,68,0.00,,,0.00,weatherlink.com 1.10,2013-06-14 06:35:00,
2013-06-14 02:50:00,64.6,54.0,29.89,WSW,252,4.0,6.0,69,0.00,,,0.00,weatherlink.com 1.10,2013-06-14 06:50:00,
2013-06-14 03:05:00,64.4,54.0,29.89,WNW,302,2.0,5.0,69,0.00,,,0.00,weatherlink.com 1.10,2013-06-14 07:05:00,
2013-06-14 03:20:00,64.1,54.0,29.89,WNW,300,0.0,5.0,70,0.00,,,0.00,weatherlink.com 1.10,2013-06-14 07:20:00,
2013-06-14 03:35:00,63.8,54.0,29.89,NW,304,0.0,2.0,71,0.00,,,0.00,weatherlink.com 1.10,2013-06-14 07:35:00,
2013-06-14 03:50:00,63.6,54.0,29.89,NNW,327,2.0,4.0,71,0.00,,,0.00,weatherlink.com 1.10,2013-06-14 07:50:00,
2013-06-14 04:05:00,63.8,54.0,29.88,NNW,342,4.0,5.0,70,0.00,,,0.00,weatherlink.com 1.10,2013-06-14 08:05:00,
2013-06-14 04:20:00,63.6,54.0,29.88,NW,325,4.0,6.0,70,0.00,,,0.00,weatherlink.com 1.10,2013-06-14 08:20:00,
2013-06-14 04:35:00,63.4,54.0,29.89,NNW,333,2.0,6.0,71,0.00,,,0.00,weatherlink.com 1.10,2013-06-14 08:35:00,
2013-06-14 04:50:00,63.4,54.0,29.89,NW,323,2.0,4.0,71,0.00,,,0.00,weatherlink.com 1.10,2013-06-14 08:50:00,
2013-06-14 05:06:00,63.0,54.0,29.89,NNW,331,2.0,4.0,72,0.00,,,0.00,weatherlink.com 1.10,2013-06-14 09:06:00,
2013-06-14 05:21:00,62.7,54.0,29.90,NNW,339,2.0,5.0,73,0.00,,,0.00,weatherlink.com 1.10,2013-06-14 09:21:00,
2013-06-14 05:36:00,62.7,54.0,29.91,NNW,336,2.0,6.0,73,0.00,,,0.00,weatherlink.com 1.10,2013-06-14 09:36:00,
2013-06-14 05:51:00,62.4,55.0,29.91,SW,227,0.0,3.0,76,0.00,,,0.00,weatherlink.com 1.10,2013-06-14 09:51:00,
2013-06-14 06:06:00,61.8,55.0,29.92,SW,228,0.0,2.0,77,0.00,,,0.00,weatherlink.com 1.10,2013-06-14 10:06:00,
2013-06-14 06:21:00,61.7,55.0,29.93,SW,228,0.0,3.0,78,0.00,,,0.00,weatherlink.com 1.10,2013-06-14 10:21:00,
2013-06-14 06:36:00,61.5,55.0,29.93,West,274,0.0,3.0,79,0.00,,,0.00,weatherlink.com 1.10,2013-06-14 10:36:00,
2013-06-14 06:51:00,61.9,55.0,29.93,NW,308,1.0,3.0,77,0.00,,,0.00,weatherlink.com 1.10,2013-06-14 10:51:00,
2013-06-14 07:06:00,62.7,55.0,29.94,NNW,338,0.0,6.0,75,0.00,,,0.00,weatherlink.com 1.10,2013-06-14 11:06:00,
2013-06-14 07:21:00,63.4,55.0,29.95,NNW,336,0.0,3.0,74,0.00,,,0.00,weatherlink.com 1.10,2013-06-14 11:21:00,
2013-06-14 07:36:00,63.0,55.0,29.96,SSW,212,0.0,5.0,76,0.00,,,0.00,weatherlink.com 1.10,2013-06-14 11:36:00,
2013-06-14 07:51:00,63.0,55.0,29.96,WSW,246,4.0,5.0,76,0.00,,,0.00,weatherlink.com 1.10,2013-06-14 11:51:00,
2013-06-14 08:06:00,63.5,55.0,29.97,WNW,286,1.0,4.0,75,0.00,,,0.00,weatherlink.com 1.10,2013-06-14 12:06:00,
2013-06-14 08:21:00,64.0,56.0,29.97,WSW,242,3.0,4.0,75,0.00,,,0.00,weatherlink.com 1.10,2013-06-14 12:21:00,
2013-06-14 08:36:00,64.7,56.0,29.98,WSW,240,1.0,5.0,73,0.00,,,0.00,weatherlink.com 1.10,2013-06-14 12:36:00,
2013-06-14 08:51:00,65.7,57.0,29.99,West,263,1.0,4.0,73,0.00,,,0.00,weatherlink.com 1.10,2013-06-14 12:51:00,
2013-06-14 09:06:00,66.8,57.0,30.00,West,270,0.0,5.0,70,0.00,,,0.00,weatherlink.com 1.10,2013-06-14 13:06:00,
2013-06-14 09:21:00,68.2,57.0,29.98,NW,320,2.0,6.0,68,0.00,,,0.00,weatherlink.com 1.10,2013-06-14 13:21:00,
2013-06-14 09:36:00,68.6,58.0,29.99,North,355,1.0,7.0,68,0.00,,,0.00,weatherlink.com 1.10,2013-06-14 13:36:00,
2013-06-14 09:51:00,70.1,58.0,29.99,NNW,333,3.0,6.0,65,0.00,,,0.00,weatherlink.com 1.10,2013-06-14 13:51:00,
2013-06-14 10:06:00,71.3,57.0,30.00,WNW,303,3.0,6.0,62,0.00,,,0.00,weatherlink.com 1.10,2013-06-14 14:06:00,
2013-06-14 10:21:00,71.7,58.0,30.00,NNW,327,4.0,5.0,62,0.00,,,0.00,weatherlink.com 1.10,2013-06-14 14:21:00,
2013-06-14 10:36:00,72.2,57.0,30.00,NNW,331,4.0,8.0,60,0.00,,,0.00,weatherlink.com 1.10,2013-06-14 14:36:00,
2013-06-14 10:51:00,73.5,58.0,30.00,NNW,348,1.0,6.0,59,0.00,,,0.00,weatherlink.com 1.10,2013-06-14 14:51:00,
2013-06-14 11:06:00,74.0,57.0,30.00,NNW,338,3.0,8.0,56,0.00,,,0.00,weatherlink.com 1.10,2013-06-14 15:06:00,
2013-06-14 11:21:00,74.6,58.0,30.00,NE,38,4.0,10.0,57,0.00,,,0.00,weatherlink.com 1.10,2013-06-14 15:21:00,
2013-06-14 11:36:00,75.6,58.0,30.00,West,270,3.0,5.0,54,0.00,,,0.00,weatherlink.com 1.10,2013-06-14 15:36:00,
2013-06-14 11:52:00,77.2,59.0,30.01,NNW,340,2.0,6.0,54,0.00,,,0.00,weatherlink.com 1.10,2013-06-14 15:52:00,
2013-06-14 12:07:00,76.9,58.0,30.00,NNW,329,8.0,11.0,52,0.00,,,0.00,weatherlink.com 1.10,2013-06-14 16:07:00,
2013-06-14 12:22:00,77.7,58.0,30.00,NW,317,2.0,7.0,51,0.00,,,0.00,weatherlink.com 1.10,2013-06-14 16:22:00,
2013-06-14 12:37:00,77.4,58.0,30.01,NNW,336,7.0,8.0,52,0.00,,,0.00,weatherlink.com 1.10,2013-06-14 16:37:00,
2013-06-14 12:52:00,77.3,58.0,30.01,NW,323,4.0,9.0,52,0.00,,,0.00,weatherlink.com 1.10,2013-06-14 16:52:00,
2013-06-14 13:07:00,77.9,58.0,30.00,West,279,7.0,9.0,51,0.00,,,0.00,weatherlink.com 1.10,2013-06-14 17:07:00,
2013-06-14 13:22:00,78.7,57.0,30.00,NW,317,6.0,12.0,48,0.00,,,0.00,weatherlink.com 1.10,2013-06-14 17:22:00,
2013-06-14 13:37:00,79.1,58.0,29.99,NNW,346,9.0,14.0,49,0.00,,,0.00,weatherlink.com 1.10,2013-06-14 17:37:00,
2013-06-14 13:52:00,78.8,57.0,29.99,NNW,330,9.0,11.0,48,0.00,,,0.00,weatherlink.com 1.10,2013-06-14 17:52:00,
2013-06-14 14:07:00,78.3,57.0,29.98,NW,304,3.0,10.0,48,0.00,,,0.00,weatherlink.com 1.10,2013-06-14 18:07:00,
2013-06-14 14:22:00,79.6,57.0,29.98,NNW,336,4.0,10.0,46,0.00,,,0.00,weatherlink.com 1.10,2013-06-14 18:22:00,
2013-06-14 14:37:00,79.2,56.0,29.97,NNW,341,6.0,9.0,45,0.00,,,0.00,weatherlink.com 1.10,2013-06-14 18:37:00,
2013-06-14 14:52:00,79.2,57.0,29.97,NNW,333,5.0,10.0,46,0.00,,,0.00,weatherlink.com 1.10,2013-06-14 18:52:00,
2013-06-14 15:07:00,79.5,56.0,29.97,WNW,301,4.0,12.0,44,0.00,,,0.00,weatherlink.com 1.10,2013-06-14 19:07:00,
2013-06-14 15:22:00,80.4,56.0,29.97,NNW,333,2.0,11.0,43,0.00,,,0.00,weatherlink.com 1.10,2013-06-14 19:22:00,
2013-06-14 15:37:00,80.7,55.0,29.97,WSW,258,1.0,7.0,42,0.00,,,0.00,weatherlink.com 1.10,2013-06-14 19:37:00,
2013-06-14 15:52:00,80.8,56.0,29.97,NNW,339,3.0,9.0,43,0.00,,,0.00,weatherlink.com 1.10,2013-06-14 19:52:00,
2013-06-14 16:07:00,80.0,55.0,29.98,NNE,32,2.0,7.0,43,0.00,,,0.00,weatherlink.com 1.10,2013-06-14 20:07:00,
2013-06-14 16:22:00,80.8,56.0,29.97,NNE,32,0.0,8.0,42,0.00,,,0.00,weatherlink.com 1.10,2013-06-14 20:22:00,
2013-06-14 16:37:00,82.0,54.0,29.98,West,267,3.0,8.0,38,0.00,,,0.00,weatherlink.com 1.10,2013-06-14 20:37:00,
2013-06-14 16:52:00,81.8,56.0,29.97,NNE,21,1.0,8.0,41,0.00,,,0.00,weatherlink.com 1.10,2013-06-14 20:52:00,
2013-06-14 17:07:00,82.5,56.0,29.97,ENE,58,3.0,10.0,41,0.00,,,0.00,weatherlink.com 1.10,2013-06-14 21:07:00,
2013-06-14 17:22:00,82.9,56.0,29.97,North,355,2.0,9.0,40,0.00,,,0.00,weatherlink.com 1.10,2013-06-14 21:22:00,
2013-06-14 17:37:00,82.5,55.0,29.97,NNW,328,5.0,11.0,39,0.00,,,0.00,weatherlink.com 1.10,2013-06-14 21:37:00,
2013-06-14 17:52:00,81.0,55.0,29.98,NNW,348,2.0,11.0,41,0.00,,,0.00,weatherlink.com 1.10,2013-06-14 21:52:00,
2013-06-14 18:07:00,81.2,55.0,29.97,NNW,340,7.0,10.0,41,0.00,,,0.00,weatherlink.com 1.10,2013-06-14 22:07:00,
2013-06-14 18:22:00,81.0,56.0,29.97,North,11,4.0,12.0,42,0.00,,,0.00,weatherlink.com 1.10,2013-06-14 22:22:00,
2013-06-14 18:37:00,80.5,55.0,29.97,NNW,347,3.0,9.0,41,0.00,,,0.00,weatherlink.com 1.10,2013-06-14 22:37:00,
2013-06-14 18:52:00,80.9,56.0,29.97,NW,315,6.0,10.0,42,0.00,,,0.00,weatherlink.com 1.10,2013-06-14 22:52:00,
2013-06-14 19:07:00,80.6,55.0,29.97,West,276,2.0,6.0,41,0.00,,,0.00,weatherlink.com 1.10,2013-06-14 23:07:00,
2013-06-14 19:22:00,80.7,55.0,29.98,NNW,336,3.0,9.0,42,0.00,,,0.00,weatherlink.com 1.10,2013-06-14 23:22:00,
2013-06-14 19:37:00,80.6,55.0,29.97,NNE,28,3.0,8.0,41,0.00,,,0.00,weatherlink.com 1.10,2013-06-14 23:37:00,
2013-06-14 19:52:00,80.2,55.0,29.97,North,355,1.0,7.0,42,0.00,,,0.00,weatherlink.com 1.10,2013-06-14 23:52:00,
2013-06-14 20:07:00,79.9,55.0,29.97,NNW,346,3.0,7.0,43,0.00,,,0.00,weatherlink.com 1.10,2013-06-15 00:07:00,
2013-06-14 20:22:00,79.0,55.0,29.97,NNW,331,0.0,9.0,44,0.00,,,0.00,weatherlink.com 1.10,2013-06-15 00:22:00,
2013-06-14 20:37:00,78.7,56.0,29.98,North,355,2.0,7.0,45,0.00,,,0.00,weatherlink.com 1.10,2013-06-15 00:37:00,
2013-06-14 20:52:00,78.2,56.0,29.98,NNW,333,4.0,8.0,46,0.00,,,0.00,weatherlink.com 1.10,2013-06-15 00:52:00,
2013-06-14 21:07:00,77.6,56.0,29.98,NNW,342,5.0,7.0,47,0.00,,,0.00,weatherlink.com 1.10,2013-06-15 01:07:00,
2013-06-14 21:22:00,77.1,56.0,29.98,NNW,328,0.0,4.0,49,0.00,,,0.00,weatherlink.com 1.10,2013-06-15 01:22:00,
2013-06-14 21:37:00,75.0,57.0,29.98,NNW,328,0.0,1.0,54,0.00,,,0.00,weatherlink.com 1.10,2013-06-15 01:37:00,
2013-06-14 21:52:00,73.6,57.0,29.99,NNW,328,0.0,1.0,57,0.00,,,0.00,weatherlink.com 1.10,2013-06-15 01:52:00,
2013-06-14 22:07:00,72.5,57.0,29.99,NNW,328,0.0,1.0,59,0.00,,,0.00,weatherlink.com 1.10,2013-06-15 02:07:00,
2013-06-14 22:22:00,71.7,57.0,30.00,NNW,328,0.0,1.0,61,0.00,,,0.00,weatherlink.com 1.10,2013-06-15 02:22:00,
2013-06-14 22:37:00,70.6,58.0,30.01,NNW,328,0.0,1.0,64,0.00,,,0.00,weatherlink.com 1.10,2013-06-15 02:37:00,
2013-06-14 22:52:00,70.3,58.0,30.01,NNW,328,1.0,1.0,66,0.00,,,0.00,weatherlink.com 1.10,2013-06-15 02:52:00,
2013-06-14 23:07:00,69.5,59.0,30.01,NNW,328,0.0,1.0,69,0.00,,,0.00,weatherlink.com 1.10,2013-06-15 03:07:00,
2013-06-14 23:22:00,68.5,59.0,30.01,SSE,150,0.0,2.0,71,0.00,,,0.00,weatherlink.com 1.10,2013-06-15 03:22:00,
2013-06-14 23:37:00,68.4,59.0,30.01,SSE,150,0.0,1.0,72,0.00,,,0.00,weatherlink.com 1.10,2013-06-15 03:37:00,
2013-06-14 23:52:00,67.9,59.0,30.01,SSE,150,1.0,1.0,74,0.00,,,0.00,weatherlink.com 1.10,2013-06-15 03:52:00,